Voltar ao catálogo

CZ-4C DEB

AtivoSSO
NORAD 43261·DEBRIS·🇨🇳 China

Lançado Mar 31, 2018 de Taiyuan Satellite Launch Center

Loading…

Próximas Passagens (próximas 24 horas)

TLE

AtualizadoSource: Space-Track

Época: Sep 14, 2026, 13:30 UTC

1 43261U 18031C   26257.56305535  .00004866  00000-0  37251-3 0  9998
2 43261  97.7681 341.9029 0009072  14.1790 345.9688 15.02325697457823

Acompanhe CZ-4C DEB em tempo real com AllMySat

Download on the App Store